STARLINK-3240, 49728

Orbit data source: Space-Track

STARLINK-3240, 49728 is a payload satellite owned by SpaceX/Seattle (US) in LEO that was launched on Thu, 02 Dec 2021 UTC via an FALCON 9 launch vehicle from the Air Force Eastern Test Range (AFETR). Payload-class satellites include a variety of spacecraft equipped with specific instruments for various scientific and technological missions. These include communications satellites like Starlink; space stations such as the ISS; scientific satellites like the Hubble; Earth observation satellites from companies like Planet Labs, Umbra, and HawkEye 360; GPS; miniature CubeSats for education and research; and military/defense satellites.

Loading next visibility...
Identifier
49728, 2021-115E
Orbit
LEO
Country
Flag of USUS
Related business
Manufacturer
SpaceX/Seattle
Mission
Operational Commercial Communications
Bus & Motor
STARLINK, Unknown motor
Mass
290 kg wet, ~270 kg dry
Launch date (UTC)
2021-12-02 (5 years ago)
Launch vehicle
FALCON 9
Launch site
Air Force Eastern Test Range (AFETR)
Object type
Payload
Rocket body
Debris
Shape & HBR
Box + 1 Pan, 10.1 m
Radar Cross Section
13.562 m², Large (>1 m²)

Expand to show TLE details & history
Last TLE update: 2 days ago

TLE from 2 days ago
0 STARLINK-3240
1 49728U 21115E   26170.97462995  .00001562  00000-0  11623-3 0  9997
2 49728  53.1614  59.8349 0001284  83.5742 276.5396 15.08826997250835
Epoch: 2026-06-19T23:23Z
TLE epoch observation values (Epoch: 2026-06-19T23:23:28.027Z)
Latitude
Longitude
160.77222°
Altitude
540.574 km
Speed
7.593 km/s
True Right ascension
03h 59m 20s
True Declination
0° 00' 00"
Sunlit
Object was in daylight at epoch
Visualization orbit readout
Latitude
Unknown
Longitude
Unknown
Altitude
Unknown
Speed
Unknown
Apparent Right ascension
Unknown
Apparent Declination
Unknown
Sunlit
N/A
Visualization observer readout
Local Sidereal Time
21:31:29
Azimuth
Unknown
Elevation
Unknown
Doppler factor
Unknown
Orbital elements
Apogee altitude
540.925 km
Perigee altitude
539.149 km
Semi-major axis
6,918.174 km
Eccentricity
0.00013
Inclination
53.1614°
RAAN
59.8349°
Arg. of periapsis
83.5742°
True anomaly
276.52498°
Mean anomaly
276.5396°
Eccentric anomaly
276.53229°
Mean motion
3.77186 °/min
Orbital period
95.44 mins
BSTAR
0.00011623
Loading maneuver chart data...
Computing Atmospheric mass density...
Loading historical data...
Loading historical data...
Loading historical data...
Loading historical data...
Loading historical data...
Loading historical data...
Loading historical data...

Documentation

Showing up to 5 results
|